Location: Newark
(44.1667°N, 8.2500°E)
Time: 15:16:54
(UTC+00:00)

Explorer 11/Cluster Stage 4 - Pass Details

Date: 24 December 2019
Orbit: 467 x 1259 km, 28.8° (Epoch: 22 January)

Event Time Altitude Azimuth Distance (km) Brightness Sun altitude
Rises 06:19:50 0° 249° (WSW) 4,020 9.8 -7.2°
Reaches altitude 10° 06:23:08 10° 237° (WSW) 3,138 9.4 -6.6°
Maximum altitude 06:29:21 25° 186° (S) 2,275 9.2 -5.6°
Drops below altitude 10° 06:35:42 10° 135° (SE) 3,214 11.3 -4.6°
Sets 06:39:08 0° 123° (ESE) 4,136 13.3 -4.1°
